Other Surface Observations
Issued by NWS Tucson, AZ

Home | Current Version | Previous Version | Text Only | Print | Product List | Glossary On
Versions: 1 2 3 4 5 6 7 8 9 10 11 12 13 14 15 16 17 18 19 20 21 22 23 24 25 26 27 28 29 30 31 32 33 34 35 36 37 38 39 40 41 42 43 44 45 46 47 48 49 50
624
SXUS55 KTWC 231115
OSOTWC

WEATHER ROUNDUP FOR SOUTHEAST ARIZONA
NATIONAL WEATHER SERVICE TUCSON AZ
415 AM MST MON JAN 23 2017

AZZ504>506-514-231215-
LOCATION       SKY/WX    TMP DP  RH WIND       PRES   REMARKS
TUCSON         CLEAR     47  30  51 SE14      30.01F
DAVIS-MONTHAN  CLEAR     43  31  63 SE9       30.00F
CHILDRENS PARK N/A      N/A N/A  55 SE5               PIMA CO DEQ
ALVERNON/22ND  N/A       48 N/A N/A E5                PIMA CO DEQ
CHERRY/GLENN   N/A      N/A N/A N/A N/A               PIMA CO DEQ
TANGERINE      N/A       54 N/A N/A SE6               PIMA CO DEQ
CONTL RANCH    N/A       48  34  57 SE5               PIMA CO DEQ
GRANT/1ST      N/A       49  31  50 SE5               PIMA CO DEQ
CRAYCROFT/22ND N/A       47  31  53 N/A               PIMA CO DEQ
GOLFLINKS/KOLB N/A       47  30  51 SE6               PIMA CO DEQ
AJO/12TH       N/A       44  33  66 S7                PIMA CO DEQ
FAIRGROUNDS    N/A       47 N/A N/A E12               PIMA CO DEQ
SAGUARO        N/A       56  26  31 NE8G14            *SABINO CYN
SAN CARLOS     N/A       41  37  86 S4                *SAN CARLOS
GREEN VALLEY   N/A       42  30  61 SE4               PIMA CO DEQ
HORSE CAMP CYN N/A       45  30  55 E12G16            *ARAVAIPA CYN
RINCON MTNS    N/A       29  25  85 SW3G12            *NR MANNING CAMP
$$

AZZ509>511-231215-
LOCATION       SKY/WX    TMP DP  RH WIND       PRES   REMARKS
SAFFORD        CLEAR     35  32  88 NW5       30.02F WCI  31
STRAY HORSE    N/A       34  16  47 N/A               *
TRAIL CABIN    N/A       33  28  82 SE6               *N OF GRANVILLE
BLACK HILLS    NOT AVBL
DRY LAKE       N/A       29  29  99 SW4G10            *NATANES MTNS
NOON CREEK     N/A       35  28  76 SW4               *PINALENO MTNS
COLUMBINE      N/A       26  17  68 S6G10             *PINALENO MTNS
GUTHRIE        N/A       38  25  59 SW10G15           *SW OF GUTHRIE
$$

AZZ502-503-513-231215-
LOCATION       SKY/WX    TMP DP  RH WIND       PRES   REMARKS
NOGALES        CLEAR     39  27  62 S6        30.05F WCI  35
SELLS          N/A       53  33  46 SE8G14            *
SASABE         N/A       38  31  75 SW4               *ALTAR VLY
HOPKINS        N/A       39   7  26 W6G15             *SANTA RITA MTNS
CARR CYN       N/A       48  19  31 SW3G10            *W OF HEREFORD
$$

AZZ507-508-512-231215-
LOCATION       SKY/WX    TMP DP  RH WIND       PRES   REMARKS
SIERRA VISTA   CLEAR     41  27  56 SE3       30.07F
DOUGLAS        CLEAR     38  33  82 SE8       30.08F WCI  32
EMPIRE MTNS    NOT AVBL
MULESHOE RANCH N/A       40  26  57 E2                *PRESERVE
HEADQUARTERS   N/A       34  26  73 E2                *CHIRICAHUA MTNS
$$

.............................NOTES.............................
THIS IS AN AUTOMATED COLLECTIVE WITH MINIMAL QUALITY CONTROL.
PIMA CO DEQ SITES HAVE NONSTANDARD WIND SENSOR HEIGHTS.
PIMA CO DEQ SITES DO NOT REPORT WIND GUSTS.
* INDICATES WIND SENSORS LOCATED AT 20 FEET INSTEAD OF 33 FEET.
..............................KEY..............................
SKY/WX - SKY CONDITION/WEATHER
TMP    - TEMPERATURE IN FAHRENHEIT
DP     - DEWPOINT IN FAHRENHEIT
RH     - RELATIVE HUMIDITY IN PERCENT
WIND   - DIRECTION AND SPEED IN MILES PER HOUR (MPH)
VRB    - VARIABLE WIND DIRECTION
PRES   - MEAN SEA LEVEL PRESSURE IN INCHES OF MERCURY
         F - FALLING PRESSURE   R - RISING PRESSURE
         S - STEADY PRESSURE
VSB    - VISIBILITY IN MILES
HX     - HEAT INDEX IN FAHRENHEIT
WCI    - WIND CHILL INDEX IN FAHRENHEIT
N/A    - NOT AVAILABLE
AFB    - AIR FORCE BASE
         DAVIS-MONTHAN IS DAVIS-MONTHAN AIR FORCE BASE
CYN    - CANYON
MTNS   - MOUNTAINS
NCA    - NATIONAL CONSERVATION AREA
NR     - NEAR
VLY    - VALLEY
CONTL  - CONTINENTAL
PIMA CO DEQ - PIMA COUNTY DEPT OF ENVIRONMENTAL QUALITY



USA.gov is the U.S. government's official web portal to all federal, state and local government web resources and services.